Weather History for KDMO - October, 2012

Change the Weather History Date:

Friday, October 5, 2012

  Actual Average Record
Temperature  
Mean Temperature 44 °F 62 °F  
Max Temperature 50 °F 73 °F 94 °F (1937)
Min Temperature 37 °F 52 °F 28 °F (1988)
Degree Days  
Heating Degree Days 21 5  
Month to date heating degree days 27 14  
Since 1 July heating degree days 67 59  
Cooling Degree Days 0 2  
Month to date cooling degree days 0 6  
Year to date cooling degree days 2080 1456  
Moisture  
Dew Point 41 °F    
Average Humidity 77    
Maximum Humidity 93    
Minimum Humidity 61    
Precipitation  
Precipitation 0.40 in 0.13 in 3.74 in (1955)
Month to date precipitation 0.60 0.40  
Year to date precipitation 22.78 32.45  
Sea Level Pressure  
Sea Level Pressure 30.25 in    
Wind  
Wind Speed 8 mph (NNE)    
Max Wind Speed 20 mph    
Max Gust Speed 23 mph    
Visibility 10 miles    
Events Rain , Thunderstorm    
T = Trace of Precipitation, MM = Missing Value Source: NWS Daily Summary

Daily Weather History Graph

Daily Weather History Graph

Search for Another Location

Airport or City:

Trip Planner

Search our weather history database for the weather conditions in past years. The results will help you decide how hot, cold, wet, or windy it might be!

Date:

Astronomy

Oct. 05, 2012 Rise Set
Actual Time 7:12 AM CDT 6:48 PM CDT
Civil Twilight 6:46 AM CDT 7:14 PM CDT
Nautical Twilight 6:15 AM CDT 7:45 PM CDT
Astronomical Twilight 5:44 AM CDT 8:16 PM CDT
Moon 10:15 PM CDT (10/5) 12:17 PM CDT (10/5)
Length of Visible Light 12h 28m
Length of Day
11h 35m
Waning Gibbous, 74% of the Moon is Illuminated
Oct 5
Waning Gibbous
Oct 8
Last Quarter
Oct 15
New
Oct 21
First Quarter
Oct 29
Full

Hourly Weather History & Observations

Time (CDT) Temp. Windchill Dew Point Humidity Pressure Visibility Wind Dir Wind Speed Gust Speed Precip Events Conditions
12:34 AM 48.2 °F - 46.4 °F 93% 30.21 in 10.0 mi NE 8.1 mph - 0.02 in Rain Light Rain
12:53 AM 48.0 °F - 46.0 °F 93% 30.22 in 10.0 mi NE 9.2 mph - 0.02 in Thunderstorm Overcast
1:53 AM 48.0 °F - 46.0 °F 93% 30.25 in 8.0 mi NE 5.8 mph - 0.06 in Rain , Thunderstorm Light Thunderstorms and Rain
2:24 AM 48.2 °F - 46.4 °F 93% 30.27 in 10.0 mi Calm Calm - 0.07 in Rain , Thunderstorm Light Rain
2:48 AM 48.2 °F - 46.4 °F 93% 30.24 in 10.0 mi NNE 6.9 mph - 0.07 in Thunderstorm Overcast
3:53 AM 48.0 °F - 45.0 °F 89% 30.22 in 10.0 mi NE 8.1 mph - 0.18 in Rain , Thunderstorm Light Rain
4:02 AM 48.2 °F - 44.6 °F 87% 30.23 in 10.0 mi NE 5.8 mph - 0.00 in Rain Light Rain
4:20 AM 46.4 °F 42.4 °F 44.6 °F 93% 30.22 in 10.0 mi ENE 8.1 mph - 0.01 in Rain , Thunderstorm Light Rain
4:53 AM 46.9 °F - 44.1 °F 90% 30.25 in 7.0 mi NNE 5.8 mph - 0.03 in Rain Rain
5:53 AM 46.9 °F - 43.0 °F 86% 30.26 in 10.0 mi NE 9.2 mph - 0.04 in   Overcast
6:53 AM 46.9 °F - 45.0 °F 93% 30.24 in 10.0 mi East 5.8 mph - N/A   Overcast
7:39 AM 46.4 °F 42.9 °F 44.6 °F 93% 30.25 in 7.0 mi North 6.9 mph - 0.01 in Rain Light Rain
7:53 AM 46.9 °F - 45.0 °F 93% 30.25 in 10.0 mi NNE 5.8 mph - 0.01 in Rain Light Rain
8:15 AM 46.4 °F 43.5 °F 44.6 °F 93% 30.24 in 10.0 mi NE 5.8 mph - 0.00 in   Overcast
8:49 AM 48.2 °F - 44.6 °F 87% 30.25 in 10.0 mi NE 5.8 mph - 0.00 in   Overcast
8:53 AM 48.0 °F - 45.0 °F 89% 30.26 in 10.0 mi NE 4.6 mph - 0.00 in   Overcast
9:01 AM 48.2 °F - 44.6 °F 87% 30.25 in 10.0 mi NE 5.8 mph - N/A   Overcast
9:07 AM 48.2 °F - 44.6 °F 87% 30.24 in 10.0 mi NE 5.8 mph - N/A   Overcast
9:34 AM 48.2 °F - 44.6 °F 87% 30.25 in 10.0 mi NE 6.9 mph - N/A   Overcast
9:53 AM 46.9 °F - 43.0 °F 86% 30.25 in 10.0 mi NE 8.1 mph - 0.00 in Rain Light Rain
10:04 AM 46.4 °F 41.1 °F 42.8 °F 87% 30.24 in 10.0 mi NE 11.5 mph 16.1 mph 0.00 in   Overcast
10:35 AM 46.4 °F 42.9 °F 39.2 °F 76% 30.24 in 10.0 mi NE 6.9 mph - 0.00 in Thunderstorm Thunderstorm
10:50 AM 46.4 °F 41.9 °F 39.2 °F 76% 30.24 in 10.0 mi ENE 9.2 mph - 0.00 in   Overcast
10:53 AM 46.9 °F - 39.0 °F 74% 30.25 in 10.0 mi NE 8.1 mph - 0.00 in   Overcast
11:54 AM 46.9 °F - 39.9 °F 77% 30.25 in 10.0 mi NNE 8.1 mph - N/A   Unknown
12:31 PM 48.2 °F - 41.0 °F 76% 30.25 in 10.0 mi North 9.2 mph - N/A   Overcast
12:53 PM 46.9 °F - 39.9 °F 77% 30.23 in 10.0 mi NNE 10.4 mph - N/A   Overcast
1:05 PM 48.2 °F - 39.2 °F 71% 30.24 in 10.0 mi North 9.2 mph - N/A   Overcast
1:53 PM 46.9 °F - 41.0 °F 80% 30.25 in 10.0 mi North 12.7 mph - N/A   Overcast
2:53 PM 48.0 °F - 39.9 °F 74% 30.25 in 10.0 mi North 13.8 mph - 0.01 in   Overcast
3:18 PM 48.2 °F - 37.4 °F 66% 30.24 in 10.0 mi North 18.4 mph 23.0 mph N/A   Overcast
3:27 PM 48.2 °F - 37.4 °F 66% 30.25 in 10.0 mi North 13.8 mph 23.0 mph N/A   Overcast
3:53 PM 48.0 °F - 36.0 °F 63% 30.26 in 10.0 mi North 13.8 mph 23.0 mph N/A   Overcast
4:53 PM 48.0 °F - 36.0 °F 63% 30.22 in 10.0 mi North 9.2 mph - N/A   Overcast
5:53 PM 48.0 °F - 36.0 °F 63% 30.25 in 10.0 mi North 17.3 mph 20.7 mph N/A   Mostly Cloudy
6:53 PM 45.0 °F 41.2 °F 36.0 °F 71% 30.25 in 10.0 mi North 6.9 mph - N/A   Clear
7:53 PM 42.1 °F 38.4 °F 35.1 °F 76% 30.27 in 10.0 mi NNW 5.8 mph - N/A   Clear
8:53 PM 41.0 °F 38.0 °F 35.1 °F 79% 30.29 in 10.0 mi NW 4.6 mph - N/A   Clear
9:53 PM 39.0 °F 34.8 °F 34.0 °F 82% 30.29 in 10.0 mi NNW 5.8 mph - N/A   Clear
10:53 PM 39.0 °F 36.8 °F 34.0 °F 82% 30.29 in 10.0 mi WNW 3.5 mph - N/A   Clear
11:53 PM 37.0 °F 32.4 °F 33.1 °F 86% 30.30 in 10.0 mi WNW 5.8 mph - N/A   Clear